ONEWEB-0086, 45456

Orbit data source: Space-Track

ONEWEB-0086, 45456 is a payload satellite owned by One Web (UK) in LEO that was launched on Sat, 21 Mar 2020 UTC via a SOYUZ-2-1B launch vehicle from the Tyuratam Missile And Space Complex (TTMTR). Payload-class satellites include a variety of spacecraft equipped with specific instruments for various scientific and technological missions. These include communications satellites like Starlink; space stations such as the ISS; scientific satellites like the Hubble; Earth observation satellites from companies like Planet Labs, Umbra, and HawkEye 360; GPS; miniature CubeSats for education and research; and military/defense satellites.

Loading next visibility...
Identifier
45456, 2020-020AJ
Orbit
LEO
Country
Flag of UKUK
Related business
Manufacturer
One Web
Mission
Operational Commercial Communications
Bus & Motor
ARROW, Unknown motor
Mass
148 kg wet, ~140 kg dry
Launch date (UTC)
2020-03-21 (6 years ago)
Launch vehicle
SOYUZ-2-1B
Launch site
Tyuratam Missile And Space Complex (TTMTR)
Object type
Payload
Rocket body
Debris
Shape & HBR
Trap Box + 2 Pan, 6.7 m
Radar Cross Section
3.464 m², Large (>1 m²)

Expand to show TLE details & history
Last TLE update: 15 hours ago

TLE from 15 hours ago
0 ONEWEB-0086
1 45456U 20020AJ  25307.61852891  .00000407  00000-0  11128-2 0  9991
2 45456  87.8857  65.9689 0002221 115.5475 244.5883 13.11420608273043
Epoch: 2025-11-03T14:50Z
TLE epoch observation values (Epoch: 2025-11-03T14:50:40.897Z)
Latitude
-0.00001°
Longitude
160.18118°
Altitude
1,221.282 km
Speed
7.243 km/s
True Right ascension
04h 23m 52s
True Declination
0° 00' 00"
Sunlit
Object was in full shadow at epoch
Visualization orbit readout
Latitude
Unknown
Longitude
Unknown
Altitude
Unknown
Speed
Unknown
Apparent Right ascension
Unknown
Apparent Declination
Unknown
Sunlit
N/A
Visualization observer readout
Local Sidereal Time
01:17:07
Azimuth
Unknown
Elevation
Unknown
Doppler factor
Unknown
Orbital elements
Apogee altitude
1,216.473 km
Perigee altitude
1,213.1 km
Semi-major axis
7,592.924 km
Eccentricity
0.00022
Inclination
87.8857°
RAAN
65.9689°
Arg. of periapsis
115.5475°
True anomaly
244.56531°
Mean anomaly
244.5883°
Eccentric anomaly
244.57681°
Mean motion
3.28042 °/min
Orbital period
109.74 mins
BSTAR
0.0011128
Loading maneuver chart data...
Computing Atmospheric mass density...
Loading historical data...
Loading historical data...
Loading historical data...
Loading historical data...
Loading historical data...
Loading historical data...
Loading historical data...

Documentation

Showing up to 5 results
|